Погода в Санболях

Россия / Хабаровский край     49°22′03″N   135°10′32″E
темп.,
°C
ветер,
м/с
пор.,
м/с
влажн.,
%
обл.,
%
осадки,
мм/ч
давл.,
гПа
погр.,
м
9 мая, вс
вс901:00+6св81571100 0.0 1002704
04:00+5св81577100 0.0 1002756
07:00+5св91573100 0.0 1002782
10:00+7св9147099 0.0 1003860
13:00+8всв81271100 0.0 1003877
16:00+9св7126599 0.0 10031159
19:00+9св6126399 0.0 10041032
22:00+6св6146997 0.0 1007902
10 мая, пн
пн1001:00+5ссв6137499 0.0 1008811
04:00+4св4117499 0.0 1008627
07:00+4св397664 0.0 1010461
10:00+9св46535 0.0 10101096
13:00+12св454261 0.0 10101793
16:00+12всв6646100 0.0 10101453
19:00+10всв5756100 0.0 1012904
22:00+6всв366893 0.0 1014184
11 мая, вт
вт1101:00+4с2273100 0.0 101529
04:00+3с117651 0.0 101615
07:00+5ссв117131 0.0 1017114
10:00+10ююв01545 0.0 1018778
13:00+14з224879 0.0 10161556
16:00+13з455774 0.0 1016839
19:00+13з235897 0.0 1016869
22:00+11ююз2364100 0.0 101771
12 мая, ср
ср1201:00+11юз2366100 0.0 101670
04:00+8ююз227566 0.0 101619
07:00+9ююв127398 0.0 1016100
10:00+14ю4653100 0.0 1014983
13:00+16ю6748100 0.0 10121609
16:00+16ю6847100 0.0 10091497
19:00+13зюз5967100 0.1 1009898
22:00+10ю71484100 2.5 10081346
13 мая, чт
чт1301:00+9ю61292100 2.9 1007932
04:00+9ю51290100 3.3 1005745
07:00+9ююв61293100 2.8 10041080
10:00+10ююз51085100 3.4 1004970
13:00+13зюз7107158 0.7 10051044
16:00+14з8106179 1.3 10051588
19:00+12з8117092 0.3 10071260
22:00+10з611730 0.3 1007860